Location: Golden Pond Observatory
(36.7667°N, 88.0167°W)
Time: 00:56:50
(UTC-06:00)

N. Korean satellite - Visible Passes

Search period start: 23 February 2018 00:00
Search period end: 05 March 2018 00:00
Orbit: 459 x 514 km, 97.2° (Epoch: 22 February)

Date Brightness Start Highest point End Pass type
(mag) Time Alt. Az. Time Alt. Az. Time Alt. Az.
23 Feb 9.6 18:33:47 10° SW 18:36:25 20° W 18:39:03 10° NW visible
24 Feb 8.8 06:02:11 10° NNE 06:05:35 34° E 06:09:00 10° SSE visible
24 Feb 8.0 18:09:17 10° S 18:12:34 43° W 18:15:55 10° NNW visible
25 Feb 10.1 05:39:14 10° NE 05:41:44 17° E 05:44:15 10° SE visible
26 Feb 10.5 18:58:22 10° W 18:58:46 10° W 18:59:11 10° W visible
27 Feb 9.5 18:32:10 10° SSW 18:34:51 21° W 18:37:36 10° NW visible
28 Feb 7.9 18:07:41 10° S 18:11:00 45° W 18:14:24 10° NNW visible
01 Mar 10.1 05:37:44 10° NE 05:40:12 17° E 05:42:41 10° SE visible
02 Mar 10.4 18:56:18 10° WSW 18:57:11 11° W 18:58:06 10° WNW visible
03 Mar 9.5 18:30:29 10° SSW 18:33:16 22° W 18:36:05 10° NW visible
